Location: Allen Generating Plant
(35.0740°N, 90.1490°W)
Time: 02:57:17
(UTC+00:00)

Vanguard 1 Rocket - Visible Passes

Search period start: 11 December 2025 00:00
Search period end: 21 December 2025 00:00
Orbit: 651 x 4216 km, 34.3° (Epoch: 10 December)

Date Brightness Start Highest point End Pass type
(mag) Time Alt. Az. Time Alt. Az. Time Alt. Az.
11 Dec 8.6 12:07:24 10° SW 12:11:18 30° SSE 12:15:31 10° E visible
12 Dec 9.3 10:56:36 10° S 10:59:29 16° SSE 11:02:11 10° ESE visible
13 Dec 7.9 12:07:35 10° SW 12:11:48 40° SSE 12:16:16 10° E visible
14 Dec 8.7 10:56:47 13° SSW 10:59:59 23° SSE 11:03:30 10° E visible
15 Dec 9.6 09:49:00 13° SE 09:49:00 13° SE 09:50:19 10° ESE visible
15 Dec 7.4 12:07:56 10° WSW 12:12:22 53° SSE 12:16:56 10° E visible
16 Dec 8.1 10:58:22 22° SSW 11:00:32 33° SSE 11:04:29 10° E visible
17 Dec 9.4 09:50:26 17° SE 09:50:26 17° SE 09:52:02 10° ESE visible
17 Dec 7.0 12:08:24 10° WSW 12:12:59 65° SSE 12:17:34 10° E visible
18 Dec 7.6 10:59:38 34° SSW 11:01:07 44° SSE 11:05:18 10° E visible
19 Dec 9.2 09:51:35 20° ESE 09:51:35 20° ESE 09:53:13 10° E visible
19 Dec 6.8 12:08:56 10° WSW 12:13:38 76° S 12:18:11 10° E visible
20 Dec 7.2 11:00:41 46° SSW 11:01:44 57° SSE 11:06:02 10° E visible
